Time,TemperatureF,DewpointF,PressureIn,WindDirection,WindDirectionDegrees,WindSpeedMPH,WindSpeedGustMPH,Humidity,HourlyPrecipIn,Conditions,Clouds,dailyrainin,SoftwareType,DateUTC
2013-10-10 00:13:00,62.7,52.0,30.07,SSW,203,0.0,-999.0,68,-99.99,,,0.00,weatherlink.com 1.10,2013-10-10 05:13:00,
2013-10-10 00:28:00,62.5,53.0,30.07,South,188,4.0,-999.0,70,-99.99,,,0.00,weatherlink.com 1.10,2013-10-10 05:28:00,
2013-10-10 00:43:00,62.4,52.0,30.07,SSW,205,4.0,-999.0,70,-99.99,,,0.00,weatherlink.com 1.10,2013-10-10 05:43:00,
2013-10-10 00:58:00,62.4,52.0,30.07,SSW,192,2.0,-999.0,70,-99.99,,,0.00,weatherlink.com 1.10,2013-10-10 05:58:00,
2013-10-10 01:13:00,62.2,52.0,30.07,SSW,197,1.0,-999.0,70,-99.99,,,0.00,weatherlink.com 1.10,2013-10-10 06:13:00,
2013-10-10 01:28:00,62.0,52.0,30.07,SSW,192,3.0,-999.0,70,-99.99,,,0.00,weatherlink.com 1.10,2013-10-10 06:28:00,
2013-10-10 01:43:00,61.8,52.0,30.07,SSW,197,0.0,-999.0,70,-99.99,,,0.00,weatherlink.com 1.10,2013-10-10 06:43:00,
2013-10-10 01:58:00,61.7,52.0,30.07,SSW,196,2.0,-999.0,71,-99.99,,,0.00,weatherlink.com 1.10,2013-10-10 06:58:00,
2013-10-10 02:13:00,61.7,52.0,30.07,SSW,206,0.0,-999.0,71,-99.99,,,0.00,weatherlink.com 1.10,2013-10-10 07:13:00,
2013-10-10 02:28:00,61.7,52.0,30.08,SSW,213,6.0,-999.0,70,-99.99,,,0.00,weatherlink.com 1.10,2013-10-10 07:28:00,
2013-10-10 02:43:00,61.5,52.0,30.07,SSW,211,1.0,-999.0,70,-99.99,,,0.00,weatherlink.com 1.10,2013-10-10 07:43:00,
2013-10-10 02:58:00,61.4,52.0,30.07,SSW,208,0.0,-999.0,70,-99.99,,,0.00,weatherlink.com 1.10,2013-10-10 07:58:00,
2013-10-10 03:13:00,61.3,51.0,30.07,SSW,205,0.0,-999.0,70,-99.99,,,0.00,weatherlink.com 1.10,2013-10-10 08:13:00,
2013-10-10 03:28:00,61.3,51.0,30.07,SSW,202,0.0,-999.0,70,-99.99,,,0.00,weatherlink.com 1.10,2013-10-10 08:28:00,
2013-10-10 03:43:00,61.2,52.0,30.07,SSW,197,0.0,-999.0,71,-99.99,,,0.00,weatherlink.com 1.10,2013-10-10 08:43:00,
2013-10-10 03:58:00,61.1,52.0,30.07,SSW,209,6.0,-999.0,71,-99.99,,,0.00,weatherlink.com 1.10,2013-10-10 08:58:00,
2013-10-10 04:14:00,60.8,51.0,30.07,SSW,207,0.0,-999.0,71,-99.99,,,0.00,weatherlink.com 1.10,2013-10-10 09:14:00,
2013-10-10 04:28:00,60.8,52.0,30.07,SSW,208,0.0,-999.0,72,-99.99,,,0.00,weatherlink.com 1.10,2013-10-10 09:28:00,
2013-10-10 04:43:00,60.7,52.0,30.07,SSW,208,0.0,-999.0,72,-99.99,,,0.00,weatherlink.com 1.10,2013-10-10 09:43:00,
2013-10-10 04:58:00,60.4,52.0,30.06,SSW,213,0.0,-999.0,73,-99.99,,,0.00,weatherlink.com 1.10,2013-10-10 09:58:00,
2013-10-10 05:13:00,60.3,52.0,30.07,SSW,212,0.0,-999.0,73,-99.99,,,0.00,weatherlink.com 1.10,2013-10-10 10:13:00,
2013-10-10 05:28:00,60.0,52.0,30.07,SSW,210,0.0,-999.0,74,-99.99,,,0.00,weatherlink.com 1.10,2013-10-10 10:28:00,
2013-10-10 05:43:00,59.9,52.0,30.07,SSW,209,0.0,-999.0,74,-99.99,,,0.00,weatherlink.com 1.10,2013-10-10 10:43:00,
2013-10-10 05:58:00,59.9,52.0,30.07,SSW,211,0.0,-999.0,74,-99.99,,,0.00,weatherlink.com 1.10,2013-10-10 10:58:00,
2013-10-10 06:13:00,59.7,51.0,30.08,SSW,212,0.0,-999.0,74,-99.99,,,0.00,weatherlink.com 1.10,2013-10-10 11:13:00,
2013-10-10 06:28:00,59.5,52.0,30.08,SSW,212,0.0,-999.0,75,-99.99,,,0.00,weatherlink.com 1.10,2013-10-10 11:28:00,
2013-10-10 06:43:00,59.3,51.0,30.07,SW,215,0.0,-999.0,75,-99.99,,,0.00,weatherlink.com 1.10,2013-10-10 11:43:00,
2013-10-10 06:58:00,59.3,51.0,30.08,SSW,213,0.0,-999.0,75,-99.99,,,0.00,weatherlink.com 1.10,2013-10-10 11:58:00,
2013-10-10 07:13:00,59.0,51.0,30.08,SSW,212,0.0,-999.0,75,-99.99,,,0.00,weatherlink.com 1.10,2013-10-10 12:13:00,
2013-10-10 07:28:00,59.0,51.0,30.08,SSW,212,0.0,-999.0,75,-99.99,,,0.00,weatherlink.com 1.10,2013-10-10 12:28:00,
2013-10-10 07:43:00,59.4,51.0,30.08,SSW,211,0.0,-999.0,75,-99.99,,,0.00,weatherlink.com 1.10,2013-10-10 12:43:00,
2013-10-10 07:59:00,59.8,52.0,30.08,SSW,211,0.0,-999.0,74,-99.99,,,0.00,weatherlink.com 1.10,2013-10-10 12:59:00,
2013-10-10 08:14:00,60.4,52.0,30.09,SSW,211,0.0,-999.0,74,-99.99,,,0.00,weatherlink.com 1.10,2013-10-10 13:14:00,
2013-10-10 08:28:00,61.3,53.0,30.09,SSW,211,0.0,-999.0,73,-99.99,,,0.00,weatherlink.com 1.10,2013-10-10 13:28:00,
2013-10-10 08:43:00,62.0,53.0,30.10,SSW,211,0.0,-999.0,73,-99.99,,,0.00,weatherlink.com 1.10,2013-10-10 13:43:00,
2013-10-10 08:58:00,63.3,54.0,30.10,SSW,208,0.0,-999.0,71,-99.99,,,0.00,weatherlink.com 1.10,2013-10-10 13:58:00,
2013-10-10 09:14:00,64.2,54.0,30.10,SSW,206,0.0,-999.0,69,-99.99,,,0.00,weatherlink.com 1.10,2013-10-10 14:14:00,
2013-10-10 09:29:00,64.9,54.0,30.10,SSW,205,0.0,-999.0,69,-99.99,,,0.00,weatherlink.com 1.10,2013-10-10 14:29:00,
2013-10-10 09:44:00,65.3,54.0,30.11,SSW,211,0.0,-999.0,68,-99.99,,,0.00,weatherlink.com 1.10,2013-10-10 14:44:00,
2013-10-10 09:59:00,65.6,55.0,30.11,SSW,207,0.0,-999.0,69,-99.99,,,0.00,weatherlink.com 1.10,2013-10-10 14:59:00,
2013-10-10 10:14:00,66.1,55.0,30.11,WSW,239,0.0,-999.0,67,-99.99,,,0.00,weatherlink.com 1.10,2013-10-10 15:14:00,
2013-10-10 10:29:00,66.6,55.0,30.11,SW,221,0.0,-999.0,67,-99.99,,,0.00,weatherlink.com 1.10,2013-10-10 15:29:00,
2013-10-10 10:44:00,68.0,56.0,30.11,SW,230,0.0,-999.0,65,-99.99,,,0.00,weatherlink.com 1.10,2013-10-10 15:44:00,
2013-10-10 10:59:00,68.6,55.0,30.11,SW,233,1.0,-999.0,63,-99.99,,,0.00,weatherlink.com 1.10,2013-10-10 15:59:00,
2013-10-10 11:14:00,68.4,55.0,30.11,SW,235,0.0,-999.0,63,-99.99,,,0.00,weatherlink.com 1.10,2013-10-10 16:14:00,
2013-10-10 11:29:00,68.6,56.0,30.11,SW,229,0.0,-999.0,65,-99.99,,,0.00,weatherlink.com 1.10,2013-10-10 16:29:00,
2013-10-10 11:44:00,68.9,56.0,30.10,SW,234,4.0,-999.0,64,-99.99,,,0.00,weatherlink.com 1.10,2013-10-10 16:44:00,
2013-10-10 11:59:00,69.2,57.0,30.09,SW,220,0.0,-999.0,65,-99.99,,,0.00,weatherlink.com 1.10,2013-10-10 16:59:00,
2013-10-10 12:14:00,70.1,57.0,30.09,SW,231,0.0,-999.0,63,-99.99,,,0.00,weatherlink.com 1.10,2013-10-10 17:14:00,
2013-10-10 12:29:00,70.8,57.0,30.09,SW,229,0.0,-999.0,63,-99.99,,,0.00,weatherlink.com 1.10,2013-10-10 17:29:00,
2013-10-10 12:44:00,71.2,56.0,30.09,SW,229,0.0,-999.0,60,-99.99,,,0.00,weatherlink.com 1.10,2013-10-10 17:44:00,
2013-10-10 12:59:00,69.9,57.0,30.07,SW,223,0.0,-999.0,64,-99.99,,,0.00,weatherlink.com 1.10,2013-10-10 17:59:00,
2013-10-10 13:14:00,69.3,56.0,30.06,SSW,193,0.0,-999.0,62,-99.99,,,0.00,weatherlink.com 1.10,2013-10-10 18:14:00,
2013-10-10 13:29:00,69.4,57.0,30.05,ESE,115,0.0,-999.0,65,-99.99,,,0.00,weatherlink.com 1.10,2013-10-10 18:29:00,
2013-10-10 13:44:00,71.5,57.0,30.04,SE,146,1.0,-999.0,61,-99.99,,,0.00,weatherlink.com 1.10,2013-10-10 18:44:00,
2013-10-10 14:00:00,71.3,57.0,30.04,SE,141,0.0,-999.0,60,-99.99,,,0.00,weatherlink.com 1.10,2013-10-10 19:00:00,
2013-10-10 14:14:00,71.6,58.0,30.03,SE,132,0.0,-999.0,62,-99.99,,,0.00,weatherlink.com 1.10,2013-10-10 19:14:00,
2013-10-10 14:29:00,70.4,56.0,30.03,ESE,119,0.0,-999.0,60,-99.99,,,0.00,weatherlink.com 1.10,2013-10-10 19:29:00,
2013-10-10 14:44:00,69.5,57.0,30.02,ENE,78,0.0,-999.0,64,-99.99,,,0.00,weatherlink.com 1.10,2013-10-10 19:44:00,
2013-10-10 14:59:00,69.2,56.0,30.02,East,80,0.0,-999.0,63,-99.99,,,0.00,weatherlink.com 1.10,2013-10-10 19:59:00,
2013-10-10 15:14:00,69.3,57.0,30.01,East,81,10.0,-999.0,65,-99.99,,,0.00,weatherlink.com 1.10,2013-10-10 20:14:00,
2013-10-10 15:29:00,69.5,56.0,30.01,East,83,0.0,-999.0,63,-99.99,,,0.00,weatherlink.com 1.10,2013-10-10 20:29:00,
2013-10-10 15:44:00,69.7,56.0,30.00,East,83,0.0,-999.0,63,-99.99,,,0.00,weatherlink.com 1.10,2013-10-10 20:44:00,
2013-10-10 15:59:00,69.5,56.0,30.00,East,83,0.0,-999.0,63,-99.99,,,0.00,weatherlink.com 1.10,2013-10-10 20:59:00,
2013-10-10 16:14:00,69.5,56.0,30.00,East,85,0.0,-999.0,62,-99.99,,,0.00,weatherlink.com 1.10,2013-10-10 21:14:00,
2013-10-10 16:29:00,69.5,56.0,29.99,East,85,0.0,-999.0,62,-99.99,,,0.00,weatherlink.com 1.10,2013-10-10 21:29:00,
2013-10-10 16:44:00,69.7,56.0,29.99,East,85,0.0,-999.0,63,-99.99,,,0.00,weatherlink.com 1.10,2013-10-10 21:44:00,
2013-10-10 16:59:00,69.8,57.0,29.99,East,85,0.0,-999.0,63,-99.99,,,0.00,weatherlink.com 1.10,2013-10-10 21:59:00,
2013-10-10 17:14:00,69.9,56.0,29.99,East,85,0.0,-999.0,62,-99.99,,,0.00,weatherlink.com 1.10,2013-10-10 22:14:00,
2013-10-10 17:29:00,69.9,57.0,29.98,East,85,0.0,-999.0,63,-99.99,,,0.00,weatherlink.com 1.10,2013-10-10 22:29:00,
2013-10-10 17:44:00,70.1,56.0,29.98,East,86,0.0,-999.0,62,-99.99,,,0.00,weatherlink.com 1.10,2013-10-10 22:44:00,
2013-10-10 17:59:00,69.9,55.0,29.98,East,96,0.0,-999.0,59,-99.99,,,0.00,weatherlink.com 1.10,2013-10-10 22:59:00,
2013-10-10 18:14:00,69.2,55.0,29.98,ESE,102,0.0,-999.0,61,-99.99,,,0.00,weatherlink.com 1.10,2013-10-10 23:14:00,
2013-10-10 18:29:00,68.1,54.0,29.97,SE,129,0.0,-999.0,62,-99.99,,,0.00,weatherlink.com 1.10,2013-10-10 23:29:00,
2013-10-10 18:44:00,68.2,55.0,29.97,SSE,165,4.0,-999.0,63,-99.99,,,0.00,weatherlink.com 1.10,2013-10-10 23:44:00,
2013-10-10 18:59:00,68.1,56.0,29.97,South,186,0.0,-999.0,65,-99.99,,,0.00,weatherlink.com 1.10,2013-10-10 23:59:00,
2013-10-10 19:14:00,67.6,56.0,29.97,SSE,150,0.0,-999.0,66,-99.99,,,0.00,weatherlink.com 1.10,2013-10-11 00:14:00,
2013-10-10 19:29:00,67.3,55.0,29.97,South,182,0.0,-999.0,66,-99.99,,,0.00,weatherlink.com 1.10,2013-10-11 00:29:00,
2013-10-10 19:44:00,66.9,55.0,29.97,South,186,3.0,-999.0,66,-99.99,,,0.00,weatherlink.com 1.10,2013-10-11 00:44:00,
2013-10-10 19:59:00,66.6,55.0,29.97,SSE,157,0.0,-999.0,66,-99.99,,,0.00,weatherlink.com 1.10,2013-10-11 00:59:00,
2013-10-10 20:14:00,66.2,56.0,29.97,SSW,194,0.0,-999.0,69,-99.99,,,0.00,weatherlink.com 1.10,2013-10-11 01:14:00,
2013-10-10 20:29:00,65.8,55.0,29.97,SSE,150,2.0,-999.0,69,-99.99,,,0.00,weatherlink.com 1.10,2013-10-11 01:29:00,
2013-10-10 20:44:00,65.6,56.0,29.96,South,182,3.0,-999.0,71,-99.99,,,0.00,weatherlink.com 1.10,2013-10-11 01:44:00,
2013-10-10 20:59:00,65.2,56.0,29.97,South,171,0.0,-999.0,71,-99.99,,,0.00,weatherlink.com 1.10,2013-10-11 01:59:00,
2013-10-10 21:14:00,64.9,55.0,29.97,SSW,213,3.0,-999.0,71,-99.99,,,0.00,weatherlink.com 1.10,2013-10-11 02:14:00,
2013-10-10 21:29:00,64.6,55.0,29.97,SSW,194,6.0,-999.0,72,-99.99,,,0.00,weatherlink.com 1.10,2013-10-11 02:29:00,
2013-10-10 21:44:00,64.4,55.0,29.97,South,184,2.0,-999.0,72,-99.99,,,0.00,weatherlink.com 1.10,2013-10-11 02:44:00,
2013-10-10 21:59:00,64.3,55.0,29.98,SSW,193,4.0,-999.0,73,-99.99,,,0.00,weatherlink.com 1.10,2013-10-11 02:59:00,
2013-10-10 22:14:00,64.3,56.0,29.97,SSE,163,5.0,-999.0,74,-99.99,,,0.00,weatherlink.com 1.10,2013-10-11 03:14:00,
2013-10-10 22:29:00,63.9,56.0,29.97,SSW,207,0.0,-999.0,75,-99.99,,,0.00,weatherlink.com 1.10,2013-10-11 03:29:00,
2013-10-10 22:44:00,63.5,55.0,29.97,SSE,167,0.0,-999.0,75,-99.99,,,0.00,weatherlink.com 1.10,2013-10-11 03:44:00,
2013-10-10 22:59:00,63.0,55.0,29.98,South,190,0.0,-999.0,75,-99.99,,,0.00,weatherlink.com 1.10,2013-10-11 03:59:00,
2013-10-10 23:14:00,62.6,55.0,29.97,SSW,199,2.0,-999.0,75,-99.99,,,0.00,weatherlink.com 1.10,2013-10-11 04:14:00,
2013-10-10 23:29:00,62.2,54.0,29.97,SSW,199,0.0,-999.0,75,-99.99,,,0.00,weatherlink.com 1.10,2013-10-11 04:29:00,
2013-10-10 23:44:00,61.8,54.0,29.96,South,182,0.0,-999.0,75,-99.99,,,0.00,weatherlink.com 1.10,2013-10-11 04:44:00,
2013-10-10 23:59:00,61.7,53.0,29.96,SSW,209,5.0,-999.0,74,-99.99,,,0.00,weatherlink.com 1.10,2013-10-11 04:59:00,